{"data":{"norad_id":59536,"epoch":"2026-09-21T11:56:57.916320Z","epoch_age_seconds":81969,"freshness":"FRESH","line1":"1 59536U 24074C   26264.49789255 -.00004283  00000+0 -14636-3 0  9995","line2":"2 59536  43.0010 317.4463 0000848 279.1125  80.9630 15.27544804135963","mean_motion":15.27544804,"eccentricity":8.48e-5,"inclination_deg":43.001,"raan_deg":317.4463,"arg_perigee_deg":279.1125,"mean_anomaly_deg":80.963,"bstar":-0.00014636,"rev_number":13596,"period_min":94.268920703946,"perigee_km":482.57265003076,"apogee_km":483.73632506704,"semimajor_km":6861.2914875489,"source":"CELESTRAK","updated_at":"2026-09-22T09:00:48.967956Z"}}